Creek Data

    Home     View Charts     View Raw Data     Messages

ID Distance Battery Voltage Battery Current Internal Temp Internal Humidity External Temp Solar Input rssi snr Time Stamp Record
36064 0.0 3.96 -5 54 40 55 0 -80 7 03/26/2025 06:15 AM 17838
36063 0.0 3.96 -5 54 40 55 0 -79 8 03/26/2025 06:00 AM 17837
36062 0.0 4.01 -5 54 40 55 0 -80 7 03/26/2025 05:45 AM 17836
36061 0.0 3.96 -5 54 39 55 0 -81 8 03/26/2025 05:30 AM 17835
36060 0.0 3.96 -5 54 40 56 0 -80 8 03/26/2025 05:15 AM 17834
36059 0.0 3.96 -5 54 39 56 0 -80 7 03/26/2025 05:00 AM 17833
36058 0.0 4.02 -5 54 39 57 0 -83 7 03/26/2025 04:45 AM 17832
36057 0.0 3.97 -5 53 40 57 0 -80 8 03/26/2025 04:30 AM 17831
36056 0.0 3.97 -5 52 41 54 0 -82 8 03/26/2025 04:15 AM 17830
36055 0.0 4.00 -29 52 41 52 0 -82 7 03/26/2025 04:00 AM 17829
36054 0.0 3.97 -5 53 41 54 0 -83 8 03/26/2025 03:30 AM 17827
36053 0.0 4.02 -5 53 41 54 0 -83 8 03/26/2025 03:15 AM 17826
36052 0.0 3.97 -5 55 40 57 0 -84 9 03/26/2025 02:45 AM 17824
36051 0.0 3.97 -5 56 40 58 0 -83 8 03/26/2025 02:30 AM 17823
36050 0.0 4.03 -5 56 40 59 0.1 -83 8 03/26/2025 02:15 AM 17822
36049 0.0 4.03 -5 57 40 59 0 -84 8 03/26/2025 02:01 AM 17821
36048 0.0 3.98 -5 56 41 60 0 -83 8 03/26/2025 01:45 AM 17820
36047 0.0 3.98 -5 55 42 56 0 -82 7 03/26/2025 01:30 AM 17819
36046 0.0 3.98 -5 56 42 57 0 -83 8 03/26/2025 01:15 AM 17818
36045 0.0 4.03 -5 57 41 55 0.1 -84 6 03/26/2025 01:00 AM 17817
36044 0.0 4.03 -5 59 40 61 0 -82 8 03/26/2025 12:45 AM 17816
36043 0.0 4.03 -5 60 40 62 0 -83 8 03/26/2025 12:30 AM 17815
36042 0.0 4.03 -5 60 40 62 0 -82 8 03/26/2025 12:15 AM 17814
36041 0.0 3.98 -5 60 40 62 0 -82 7 03/26/2025 12:01 AM 17813
36040 0.0 3.98 -5 61 40 62 0 -82 8 03/25/2025 11:45 PM 17812